Latest Coastal Weather Observations for Cape Ferguson

IDQ60701

Issued at 7:51 am EST Thursday 3 September 2015 (issued every 10 minutes, with the page automatically refreshed every 10 minutes)

About coastal observations | Map of coastal stations | Coastal observations for QLD | Marine services | Other Formats
Station Details ID: 032182 Name: CAPE FERGUSON NTC AWS Lat: -19.28 Lon: 147.06 Height: 0.0 m
Data from the previous 72 hours. | See also: Recent months for locations in Queensland
Date/Time
EST
Temp

°C
Wind Pressure Rain
since 9am
mm
Weather Cloud Vis
km
Sea
Height
m
Swell
Dir
 
Speed
knots
Gust
knots
hPa Trend Height
m
Period
s
Dir
03/07:30am 24.3 W 5 12 1017.7 - - - - - - - - -
03/07:00am 24.3 NNE 2 3 1017.2 - - - - - - - - -
03/06:30am 24.1 NW 3 9 1017.0 - - - - - - - - -
03/06:00am 24.1 N 3 8 1016.5 - - - - - - - - -
03/05:30am 23.8 NNW 3 7 1015.7 - - - - - - - - -
03/05:00am 23.8 NNW 3 7 1015.4 - - - - - - - - -
03/04:30am 23.9 N 6 11 1015.1 - - - - - - - - -
03/04:00am 23.8 NNW 5 13 1015.2 - - - - - - - - -
03/03:30am 23.9 NW 7 11 1015.3 - - - - - - - - -
03/03:00am 24.0 NNW 7 14 1015.3 - - - - - - - - -
03/02:30am 23.9 NNW 7 13 1015.4 - - - - - - - - -
03/02:00am 24.0 NW 8 13 1015.5 - - - - - - - - -
03/01:30am 23.9 NNW 7 12 1015.6 - - - - - - - - -
03/01:00am 24.1 NW 7 13 1015.7 - - - - - - - - -
03/12:30am 24.0 NW 6 13 1015.9 - - - - - - - - -
03/12:00am 24.1 NW 7 13 1016.3 - - - - - - - - -
 
Date/Time
EST
Temp

°C
Wind Pressure Rain
since 9am
mm
Weather Cloud Vis
km
Sea
Height
m
Swell
Dir
 
Speed
knots
Gust
knots
hPa Trend Height
m
Period
s
Dir
02/11:30pm 24.1 NNW 7 13 1016.4 - - - - - - - - -
02/11:00pm 24.1 NW 7 13 1016.3 - - - - - - - - -
02/10:30pm 24.1 NW 7 13 1016.2 - - - - - - - - -
02/10:00pm 24.1 WNW 5 12 1016.2 - - - - - - - - -
02/09:30pm 24.2 WNW 6 11 1016.4 - - - - - - - - -
02/09:00pm 24.2 NW 3 12 1016.3 - - - - - - - - -
02/08:30pm 24.1 WNW 6 12 1016.1 - - - - - - - - -
02/08:00pm 24.2 WNW 5 12 1016.0 - - - - - - - - -
02/07:30pm 24.2 WNW 5 13 1015.5 - - - - - - - - -
02/07:00pm 24.2 WNW 5 13 1015.2 - - - - - - - - -
02/06:30pm 24.3 WNW 5 10 1014.8 - - - - - - - - -
02/06:00pm 24.4 WNW 3 9 1014.5 - - - - - - - - -
02/05:30pm 24.6 NW 4 9 1014.4 - - - - - - - - -
02/05:00pm 24.9 WNW 4 9 1014.3 - - - - - - - - -
02/04:30pm 25.0 NNW 5 14 1014.4 - - - - - - - - -
02/04:00pm 25.0 NW 7 14 1014.4 - - - - - - - - -
02/03:30pm 25.0 NW 6 11 1014.4 - - - - - - - - -
02/03:00pm 25.3 NW 6 14 1014.5 - - - - - - - - -
02/02:30pm 25.4 WNW 4 14 1014.9 - - - - - - - - -
02/02:00pm 25.4 W 5 11 1015.3 - - - - - - - - -
02/01:30pm 25.8 NW 4 13 1015.9 - - - - - - - - -
02/01:00pm 25.3 N 4 12 1016.6 - - - - - - - - -
02/12:30pm 25.2 S 3 12 1017.1 - - - - - - - - -
02/12:00pm 25.4 WNW 3 9 1017.7 - - - - - - - - -
02/11:30am 25.6 W 3 10 1018.3 - - - - - - - - -
02/11:00am 25.3 WNW 5 13 1018.6 - - - - - - - - -
02/10:30am 25.6 WNW 5 14 1018.9 - - - - - - - - -
02/10:00am 25.3 N 4 11 1019.2 - - - - - - - - -
02/09:30am 25.3 WSW 3 9 1019.1 - - - - - - - - -
02/09:00am 25.1 E 2 9 1018.9 - - - - - - - - -
02/08:30am 25.0 W 3 7 1018.6 - - - - - - - - -
02/08:00am 24.8 NNW 3 10 1018.4 - - - - - - - - -
02/07:30am 24.3 NW 4 9 1018.0 - - - - - - - - -
02/07:00am 23.9 NW 3 6 1017.5 - - - - - - - - -
02/06:30am 23.7 NW 4 9 1017.1 - - - - - - - - -
02/06:00am 23.7 NW 5 9 1016.8 - - - - - - - - -
02/05:30am 23.7 NW 5 9 1016.3 - - - - - - - - -
02/05:00am 23.7 NW 5 10 1016.0 - - - - - - - - -
02/04:30am 23.7 NW 5 11 1015.8 - - - - - - - - -
02/04:00am 23.8 NNW 6 10 1015.7 - - - - - - - - -
02/03:30am 23.8 NW 5 11 1015.7 - - - - - - - - -
02/03:00am 23.8 NNW 6 11 1015.7 - - - - - - - - -
02/02:30am 23.9 NW 6 10 1015.9 - - - - - - - - -
02/02:00am 23.8 NW 5 11 1015.8 - - - - - - - - -
02/01:30am 24.0 NW 5 9 1015.9 - - - - - - - - -
02/01:00am 24.0 NW 6 10 1015.9 - - - - - - - - -
02/12:30am 24.1 WNW 4 10 1015.8 - - - - - - - - -
02/12:00am 23.9 WNW 4 10 1015.9 - - - - - - - - -
 
Date/Time
EST
Temp

°C
Wind Pressure Rain
since 9am
mm
Weather Cloud Vis
km
Sea
Height
m
Swell
Dir
 
Speed
knots
Gust
knots
hPa Trend Height
m
Period
s
Dir
01/11:30pm 24.0 WNW 3 8 1015.9 - - - - - - - - -
01/11:00pm 24.1 WNW 4 9 1015.8 - - - - - - - - -
01/10:30pm 24.1 WNW 4 8 1015.8 - - - - - - - - -
01/10:00pm 24.1 W 2 9 1015.6 - - - - - - - - -
01/09:30pm 24.2 WSW 3 9 1015.6 - - - - - - - - -
01/09:00pm 24.1 WNW 4 8 1015.4 - - - - - - - - -
01/08:30pm 24.2 W 4 9 1015.2 - - - - - - - - -
01/08:00pm 24.2 WSW 2 8 1014.9 - - - - - - - - -
01/07:30pm 24.2 W 2 7 1014.4 - - - - - - - - -
01/07:00pm 24.2 SSW 2 7 1014.0 - - - - - - - - -
01/06:30pm 24.3 ESE 3 6 1013.7 - - - - - - - - -
01/06:00pm 24.3 ESE 2 5 1013.5 - - - - - - - - -
01/05:30pm 24.6 E 4 9 1013.4 - - - - - - - - -
01/05:00pm 24.7 ENE 3 9 1013.2 - - - - - - - - -
01/04:30pm 24.8 E 4 12 1013.0 - - - - - - - - -
01/04:00pm 25.1 S 3 9 1013.0 - - - - - - - - -
01/03:30pm 25.3 NE 4 13 1013.1 - - - - - - - - -
01/03:00pm 25.1 E 4 14 1013.2 - - - - - - - - -
01/02:30pm 25.2 ESE 5 12 1013.5 - - - - - - - - -
01/02:00pm 24.9 ENE 6 11 1014.1 - - - - - - - - -
01/01:30pm 24.2 ENE 6 10 1014.8 - - - - - - - - -
01/01:00pm 23.6 ENE 7 9 1015.2 - - - - - - - - -
01/12:30pm 23.4 E 6 9 1015.7 - - - - - - - - -
01/12:00pm 23.3 E 4 7 1016.1 - - - - - - - - -
01/11:30am 23.1 E 4 5 1016.6 - - - - - - - - -
01/11:00am 22.9 ESE 4 6 1017.2 - - - - - - - - -
01/10:30am 22.7 ESE 5 6 1017.5 - - - - - - - - -
01/10:00am 22.4 SSE 5 6 1017.7 - - - - - - - - -
01/09:30am 21.8 SE 4 5 1017.8 - - - - - - - - -
01/09:00am 21.9 SSE 5 8 1017.6 - - - - - - - - -
01/08:30am 22.3 SSE 8 9 1017.2 - - - - - - - - -
01/08:00am 22.5 S 4 9 1016.8 - - - - - - - - -
01/07:30am 22.3 ESE 5 10 1016.4 - - - - - - - - -
01/07:00am 22.6 NNW 2 6 1016.0 - - - - - - - - -
01/06:30am 22.7 NW 3 5 1015.5 - - - - - - - - -
01/06:00am 23.4 ENE 8 10 1015.3 - - - - - - - - -
01/05:30am 23.2 NE 4 8 1014.9 - - - - - - - - -
01/05:00am 23.1 ENE 5 9 1014.8 - - - - - - - - -
01/04:30am 22.9 NNW 1 5 1014.7 - - - - - - - - -
01/04:00am 22.9 ENE 3 8 1014.7 - - - - - - - - -
01/03:30am 23.0 ENE 9 11 1014.9 - - - - - - - - -
01/03:00am 23.3 ENE 10 11 1014.8 - - - - - - - - -
01/02:30am 23.6 ENE 10 12 1014.7 - - - - - - - - -
01/02:00am 23.5 ENE 10 11 1014.9 - - - - - - - - -
01/01:30am 23.5 ENE 10 11 1015.0 - - - - - - - - -
01/01:00am 23.5 ENE 9 10 1015.3 - - - - - - - - -
01/12:30am 23.6 ENE 8 11 1015.5 - - - - - - - - -
01/12:00am 23.6 ENE 9 11 1015.7 - - - - - - - - -
 
Date/Time
EST
Temp

°C
Wind Pressure Rain
since 9am
mm
Weather Cloud Vis
km
Sea
Height
m
Swell
Dir
 
Speed
knots
Gust
knots
hPa Trend Height
m
Period
s
Dir
31/11:30pm 23.6 ENE 8 10 1015.9 - - - - - - - - -
31/11:00pm 23.6 ENE 8 11 1015.9 - - - - - - - - -
31/10:30pm 23.5 ENE 9 11 1015.9 - - - - - - - - -
31/10:00pm 23.5 ENE 7 10 1015.6 - - - - - - - - -
31/09:30pm 23.6 ENE 7 10 1015.5 - - - - - - - - -
31/09:00pm 23.5 ENE 7 10 1015.4 - - - - - - - - -
31/08:30pm 23.6 ENE 7 10 1015.3 - - - - - - - - -
31/08:00pm 23.7 ENE 7 9 1015.0 - - - - - - - - -
31/07:30pm 23.7 ENE 4 8 1014.5 - - - - - - - - -
31/07:00pm 23.6 ENE 6 9 1014.1 - - - - - - - - -
31/06:30pm 23.7 ENE 7 11 1013.7 - - - - - - - - -
31/06:00pm 23.7 ENE 6 10 1013.6 - - - - - - - - -
31/05:30pm 23.6 ENE 10 11 1013.6 - - - - - - - - -
31/05:00pm 23.9 ENE 6 10 1013.3 - - - - - - - - -
31/04:30pm 23.8 ENE 7 9 1013.2 - - - - - - - - -
31/04:00pm 23.7 ENE 6 9 1013.2 - - - - - - - - -
31/03:30pm 23.9 ENE 7 11 1013.1 - - - - - - - - -
31/03:00pm 23.9 ENE 7 11 1013.4 - - - - - - - - -
31/02:30pm 23.8 ENE 9 13 1013.8 - - - - - - - - -
31/02:00pm 23.9 ENE 9 12 1014.3 - - - - - - - - -
31/01:30pm 24.4 ENE 5 12 1014.6 - - - - - - - - -
31/01:00pm 24.0 ENE 9 13 1014.9 - - - - - - - - -
31/12:30pm 23.7 ENE 9 10 1015.2 - - - - - - - - -
31/12:00pm 23.6 E 7 8 1015.7 - - - - - - - - -
31/11:30am 23.6 ENE 6 8 1016.0 - - - - - - - - -
31/11:00am 23.4 E 6 7 1016.5 - - - - - - - - -
31/10:30am 23.3 ESE 5 6 1016.9 - - - - - - - - -
31/10:00am 23.1 ESE 6 7 1017.2 - - - - - - - - -
31/09:30am 22.8 SE 6 7 1017.1 - - - - - - - - -
31/09:00am 22.7 SE 5 7 1017.0 - - - - - - - - -
31/08:30am 22.3 SSE 5 6 1016.7 - - - - - - - - -
31/08:00am 22.1 SSE 5 7 1016.5 - - - - - - - - -

Other Formats:

Comma delimited format used in spreadsheet applications
http://www.bom.gov.au/fwo/IDQ60701/IDQ60701.94297.axf

JavaScript Object Notation format (JSON) in row-major order
http://www.bom.gov.au/fwo/IDQ60701/IDQ60701.94297.json